CW5039 Hamilton NZ current weather conditions

sailwx.info

Wind from 182 at 1 knots gusting 2

Air temperature 12.8° C
Dewpoint 11.7° C

Last reported at 2020-May-29 06:09 UTC.
Time now 2020-May-29 06:40 UTC

Location: S 37°40' E 175°16'.
View on Google Maps.

See reports from other nearby stations

  
Tides and Currents Weather Stations Pressure Air Temp Water Temp Dewpoint Dewpoint Depression Visibility Wind Speed Wind Dir Waves Ship Positions
date/time (UTC)wind fromknots sea level pressurealtimeterstation pressurevisibilityair tempwater tempwave heightnotes
2020-May-29 06:09 182 1 gusting 2 12.8
2020-May-29 06:04 174 2 gusting 2 13.3
2020-May-29 05:49 204 1 gusting 5 13.3
2020-May-29 05:44 193 4 gusting 5 13.3
2020-May-29 05:39 195 2 gusting 2 13.3
2020-May-29 05:34 185 1 gusting 2 13.3
2020-May-29 05:24 208 1 gusting 2 13.3
2020-May-29 05:19 221 1 gusting 2 13.3
2020-May-29 05:14 194 1 gusting 2 13.3
2020-May-29 05:09 173 0 gusting 1 13.3
2020-May-29 04:59 169 1 gusting 2 13.3
2020-May-29 04:54 159 0 gusting 1 13.3
2020-May-29 04:44 159 1 gusting 2 13.3
2020-May-29 04:34 159 1 gusting 2 13.9
2020-May-29 04:29 155 1 gusting 2 13.9
2020-May-29 04:24 158 1 gusting 2 13.9
2020-May-29 04:19 154 2 gusting 2 13.9
2020-May-29 04:14 152 2 gusting 2 13.9
2020-May-29 04:09 157 2 gusting 4 13.9
2020-May-29 04:04 164 2 gusting 2 13.9
2020-May-29 03:59 170 2 gusting 2 14.4
2020-May-29 03:49 180 4 gusting 5 14.4
2020-May-29 03:44 176 2 gusting 4 14.4
2020-May-29 03:39 167 2 gusting 2 14.4
2020-May-29 03:34 163 2 gusting 4 14.4
2020-May-29 03:24 168 2 gusting 2 14.4
2020-May-29 03:19 159 2 gusting 4 14.4
2020-May-29 03:14 158 2 gusting 5 14.4
2020-May-29 03:09 152 3 gusting 5 14.4
2020-May-29 03:04 152 4 gusting 5 15.0
2020-May-29 02:59 163 3 gusting 4 15.0
2020-May-29 02:54 156 2 gusting 4 15.0
2020-May-29 02:44 144 2 gusting 4 15.0
2020-May-29 02:29 143 2 gusting 4 14.4
2020-May-29 02:24 144 2 gusting 4 14.4
2020-May-29 02:19 161 2 gusting 5 14.4
2020-May-29 02:14 154 1 gusting 2 14.4
2020-May-29 02:09 145 2 gusting 4 14.4
2020-May-29 01:59 142 2 gusting 2 14.4
2020-May-29 01:54 140 2 gusting 4 14.4
2020-May-29 01:44 156 2 gusting 2 14.4
2020-May-29 01:39 144 0 gusting 2 14.4
2020-May-29 01:29 150 2 gusting 2 13.9
2020-May-29 01:14 132 1 gusting 4 13.9
2020-May-29 01:09 128 1 gusting 2 13.9
2020-May-29 01:04 125 1 gusting 2 13.9
2020-May-29 00:59 122 2 gusting 2 13.9
2020-May-29 00:44 166 1 gusting 2 13.9
2020-May-29 00:39 148 2 gusting 4 13.9
2020-May-29 00:34 167 2 gusting 4 13.9
2020-May-29 00:29 156 2 gusting 5 13.9
2020-May-29 00:19 145 3 gusting 5 13.3
2020-May-29 00:04 177 2 gusting 2 12.8
2020-May-28 23:54 145 1 gusting 2 12.8
2020-May-28 23:49 153 1 gusting 2 12.8
2020-May-28 23:39 153 1 gusting 2 12.2
2020-May-28 23:34 139 1 gusting 2 12.2
2020-May-28 23:29 162 1 gusting 2 12.2
2020-May-28 23:24 161 1 gusting 2 12.2
2020-May-28 23:19 171 1 gusting 2 12.2
2020-May-28 23:14 174 1 gusting 2 12.2
2020-May-28 23:09 180 1 gusting 2 12.2
2020-May-28 22:59 185 0 gusting 2 11.7
2020-May-28 22:49 166 1 gusting 2 11.7
2020-May-28 22:44 165 1 gusting 2 11.7
2020-May-28 22:39 163 1 gusting 2 11.7
2020-May-28 22:34 197 1 gusting 2 11.7
2020-May-28 22:29 188 1 gusting 2 11.7
2020-May-28 22:24 191 2 gusting 2 11.1
2020-May-28 22:19 177 2 gusting 2 11.1
2020-May-28 22:14 173 2 gusting 2 11.1
2020-May-28 22:09 173 2 gusting 2 11.1
2020-May-28 22:04 170 2 gusting 4 10.6
2020-May-28 21:59 206 2 gusting 2 10.6
2020-May-28 21:49 207 1 gusting 2 10.6
2020-May-28 21:39 213 1 gusting 2 10.6
2020-May-28 21:34 212 2 gusting 4 10.6
2020-May-28 21:29 205 2 gusting 4 10.6
2020-May-28 21:19 205 2 gusting 2 10.0
2020-May-28 21:14 228 2 gusting 2 10.0
2020-May-28 21:09 219 1 gusting 4 10.0
2020-May-28 20:54 195 0 gusting 1 9.4
2020-May-28 20:49 190 0 gusting 2 8.9
2020-May-28 20:39 188 0 gusting 1 8.9
2020-May-28 20:34 188 0 gusting 1 8.9
2020-May-28 20:29 188 1 gusting 2 8.9
2020-May-28 20:24 187 1 gusting 2 8.9
2020-May-28 20:19 184 2 gusting 2 8.9
2020-May-28 20:09 176 4 gusting 4 8.3
2020-May-28 19:59 175 1 gusting 2 8.9
2020-May-28 19:54 167 1 gusting 2 8.9
2020-May-28 19:39 188 2 gusting 2 8.3
2020-May-28 19:34 190 2 gusting 4 8.9
2020-May-28 19:19 204 2 gusting 4 8.3
2020-May-28 19:14 226 1 gusting 2 8.3
2020-May-28 19:04 225 4 gusting 4 8.9
2020-May-28 18:59 221 2 gusting 2 8.9
2020-May-28 18:54 190 2 gusting 2 8.9
2020-May-28 18:39 157 2 gusting 4 8.9
2020-May-28 18:34 156 2 gusting 4 8.9
2020-May-28 18:29 168 2 gusting 4 8.9
2020-May-28 18:24 182 4 gusting 5 8.9
2020-May-28 18:09 181 2 gusting 2 8.9
2020-May-28 18:04 199 2 gusting 4 8.9
2020-May-28 17:54 246 1 gusting 2 8.9
2020-May-28 17:39 244 1 gusting 2 8.9
2020-May-28 17:34 244 1 gusting 2 8.9
2020-May-28 17:29 245 1 gusting 2 8.9
2020-May-28 17:24 249 1 gusting 2 8.9
2020-May-28 17:14 196 0 gusting 0 8.9
2020-May-28 17:04 196 0 gusting 1 8.9
2020-May-28 16:54 196 1 gusting 2 9.4
2020-May-28 16:49 196 1 gusting 2 9.4
2020-May-28 16:44 195 2 gusting 2 9.4
2020-May-28 16:39 193 1 gusting 2 9.4
2020-May-28 16:34 209 1 gusting 2 9.4
2020-May-28 16:29 225 1 gusting 2 9.4
2020-May-28 16:24 236 2 gusting 2 9.4
2020-May-28 16:19 209 1 gusting 2 9.4
2020-May-28 16:14 209 0 gusting 2 9.4
2020-May-28 16:09 207 2 gusting 4 9.4
2020-May-28 15:59 206 1 gusting 2 9.4
2020-May-28 15:54 207 1 gusting 2 9.4
2020-May-28 15:49 207 1 gusting 2 9.4
2020-May-28 15:44 207 1 gusting 2 9.4
2020-May-28 15:34 200 1 gusting 2 9.4
2020-May-28 15:29 207 0 gusting 2 9.4
2020-May-28 15:19 196 1 gusting 2 9.4
2020-May-28 15:14 196 2 gusting 2 9.4
2020-May-28 15:09 205 1 gusting 2 9.4
2020-May-28 15:04 204 1 gusting 2 9.4
2020-May-28 14:59 204 1 gusting 2 9.4
2020-May-28 14:44 192 2 gusting 2 9.4
2020-May-28 14:39 210 1 gusting 2 9.4
2020-May-28 14:34 209 1 gusting 2 9.4
2020-May-28 13:54 193 2 gusting 2 9.4
2020-May-28 13:49 195 1 gusting 2 9.4
2020-May-28 13:39 169 2 gusting 2 9.4
2020-May-28 13:34 178 3 gusting 4 8.9
2020-May-28 13:29 175 2 gusting 2 8.9
2020-May-28 13:24 230 1 gusting 2 8.9
2020-May-28 13:14 153 2 gusting 6 8.9
2020-May-28 13:09 180 1 gusting 2 8.9
2020-May-28 12:59 252 1 gusting 2 8.9
2020-May-28 12:54 126 1 gusting 2 8.9
2020-May-28 12:49 156 1 gusting 2 8.3
2020-May-28 12:34 156 2 gusting 2 8.3
2020-May-28 12:24 182 2 gusting 2 8.3
2020-May-28 12:19 170 2 gusting 2 8.3
2020-May-28 12:09 187 3 gusting 4 8.3
2020-May-28 12:04 174 2 gusting 2 8.3
2020-May-28 11:59 178 2 gusting 2 8.3
2020-May-28 11:54 207 1 gusting 2 8.3
2020-May-28 11:34 140 2 gusting 2 8.3
2020-May-28 11:19 126 3 gusting 4 8.3
2020-May-28 11:14 122 4 gusting 4 8.3
2020-May-28 11:04 125 3 gusting 4 8.3
2020-May-28 10:54 147 1 gusting 2 8.9
2020-May-28 10:49 147 1 gusting 2 8.9
2020-May-28 10:34 150 2 gusting 2 8.9
2020-May-28 10:24 160 1 gusting 2 8.9
2020-May-28 10:14 161 1 gusting 2 8.9
2020-May-28 10:09 161 1 gusting 2 8.9
2020-May-28 10:04 162 2 gusting 2 8.9
2020-May-28 09:44 124 0 gusting 2 9.4
2020-May-28 09:39 123 1 gusting 2 8.9
2020-May-28 09:34 134 1 gusting 2 8.9
2020-May-28 09:29 134 1 gusting 2 8.9
2020-May-28 09:24 134 1 gusting 2 8.9
2020-May-28 09:19 134 1 gusting 2 8.9
2020-May-28 09:14 126 1 gusting 2 8.9
2020-May-28 09:09 126 1 gusting 2 8.9
2020-May-28 09:04 126 1 gusting 2 8.9
2020-May-28 08:54 084 1 gusting 2 9.4
2020-May-28 08:49 055 0 gusting 2 9.4
2020-May-28 08:44 055 0 gusting 2 9.4
2020-May-28 08:39 055 0 gusting 1 9.4
2020-May-28 08:34 055 0 gusting 1 9.4
2020-May-28 08:29 055 0 gusting 1 9.4
2020-May-28 08:19 057 1 gusting 2 9.4
2020-May-28 08:04 039 2 gusting 2 8.9
2020-May-28 07:54 034 1 gusting 2 9.4
2020-May-28 07:49 043 2 gusting 5 10.0
2020-May-28 07:39 076 5 gusting 5 11.1
2020-May-28 07:29 074 3 gusting 5 10.0
2020-May-28 07:24 053 2 gusting 4 10.6
2020-May-28 07:19 049 4 gusting 4 10.6
2020-May-28 07:14 042 1 gusting 2 10.6
2020-May-28 07:09 055 2 gusting 2 10.6
2020-May-28 07:04 081 2 gusting 2 11.1
2020-May-28 06:59 090 2 gusting 4 11.7
2020-May-28 06:49 106 3 gusting 4 11.7
2020-May-28 06:44 086 4 gusting 4 11.7
2020-May-28 06:39 078 4 gusting 5 11.1
2020-May-28 06:34 085 5 gusting 5 10.6
2020-May-28 06:29 098 2 gusting 4 10.6
2020-May-28 06:19 099 1 gusting 2 10.6
2020-May-28 06:14 080 2 gusting 2 10.6
2020-May-28 06:04 082 2 gusting 2 10.6
2020-May-28 05:59 084 2 gusting 2 11.1
2020-May-28 05:54 084 2 gusting 2 11.1
2020-May-28 05:49 084 2 gusting 2 11.7
2020-May-28 05:44 085 1 gusting 2 11.7
2020-May-28 05:39 094 1 gusting 2 12.2
2020-May-28 05:34 103 1 gusting 2 12.2
2020-May-28 05:29 103 1 gusting 2 12.2
2020-May-28 05:19 103 0 gusting 1 12.8
2020-May-28 05:14 103 0 gusting 1 13.3
2020-May-28 05:09 103 0 gusting 1 13.3
2020-May-28 05:04 103 0 gusting 1 13.9
2020-May-28 04:54 103 0 gusting 1 13.9
2020-May-28 04:44 103 0 gusting 2 14.4
2020-May-28 04:39 110 1 gusting 2 14.4
2020-May-28 04:34 110 1 gusting 2 14.4
2020-May-28 04:29 107 1 gusting 2 15.0
2020-May-28 04:24 102 1 gusting 2 15.6
2020-May-28 04:14 089 1 gusting 2 15.6
2020-May-28 04:04 001 9.4
2020-May-27 21:04 205 0 gusting 2 7.2
2020-May-27 20:59 206 0 gusting 1 7.2
2020-May-27 20:49 201 0 gusting 2 6.1
2020-May-27 20:39 187 3 gusting 4 5.6
2020-May-27 20:34 214 2 gusting 2 5.0
2020-May-27 20:29 221 2 gusting 2 3.9
2020-May-27 20:24 232 1 gusting 2 3.3
2020-May-27 20:19 225 1 gusting 2 3.3
2020-May-27 20:14 211 1 gusting 2 3.3
2020-May-27 20:09 213 2 gusting 2 3.3
2020-May-27 20:04 221 0 gusting 1 3.3
2020-May-27 19:54 217 0 gusting 1 2.8
2020-May-27 19:49 217 1 gusting 2 2.2
2020-May-27 19:34 207 1 gusting 1 1.7
2020-May-27 19:29 217 0 gusting 0 2.2
2020-May-27 19:09 217 2.8
2020-May-27 19:04 217 0 gusting 1 2.2
2020-May-27 18:54 217 0 gusting 1 2.2
2020-May-27 18:49 217 1 gusting 2 1.7
2020-May-27 18:44 217 1 gusting 2 1.7
2020-May-27 18:39 217 0 gusting 1 2.2
2020-May-27 18:34 217 0 gusting 1 2.8
2020-May-27 18:24 217 0 gusting 1 2.8
2020-May-27 18:14 200 0 gusting 1 2.8
2020-May-27 18:09 200 0 gusting 1 3.3
2020-May-27 18:04 200 0 gusting 1 3.9
2020-May-27 17:59 200 1 gusting 1 3.9
2020-May-27 17:54 200 1 gusting 2 3.9
2020-May-27 17:49 200 2 gusting 2 3.9
2020-May-27 17:44 225 1 gusting 2 3.9
2020-May-27 17:34 225 1 gusting 2 3.9
2020-May-27 17:29 225 1 gusting 2 3.9
2020-May-27 17:24 225 0 gusting 1 3.9
2020-May-27 17:19 220 1 gusting 2 4.4
2020-May-27 17:04 203 0 gusting 1 5.0
2020-May-27 16:59 203 2 gusting 2 5.0
2020-May-27 16:54 192 2 gusting 4 5.0
2020-May-27 16:49 190 4 gusting 4 5.6
2020-May-27 16:39 178 5 gusting 5 5.6
2020-May-27 16:29 188 5 gusting 6 5.0
2020-May-27 16:24 202 4 gusting 5 5.0
2020-May-27 16:19 213 2 gusting 5 5.0
2020-May-27 16:14 220 2 gusting 4 4.4
2020-May-27 16:04 231 2 gusting 2 4.4
2020-May-27 15:59 213 2 gusting 4 4.4
2020-May-27 15:54 217 4 gusting 5 5.0
2020-May-27 15:39 219 2 gusting 2 4.4
2020-May-27 15:34 216 1 gusting 2 4.4
2020-May-27 15:29 226 4 gusting 5 4.4
2020-May-27 15:24 239 2 gusting 4 5.0
2020-May-27 15:19 259 2 gusting 4 5.6
2020-May-27 15:14 188 2 gusting 4 6.1
2020-May-27 15:09 175 4 gusting 4 5.6
2020-May-27 14:59 193 4 gusting 4 5.6
2020-May-27 14:54 198 2 gusting 4 5.6
2020-May-27 14:49 198 2 gusting 2 5.0
2020-May-27 14:39 229 2 gusting 2 5.6
2020-May-27 14:29 202 1 gusting 2 5.6
2020-May-27 14:09 197 2 gusting 2 5.6
2020-May-27 13:54 236 1 gusting 2 5.6
2020-May-27 13:44 236 1 gusting 2 6.1
2020-May-27 13:34 236 1 gusting 2 6.1
2020-May-27 13:24 250 1 gusting 2 6.1
2020-May-27 13:19 197 1 gusting 2 6.7
2020-May-27 13:14 201 1 gusting 2 6.7
2020-May-27 12:59 213 4 gusting 5 6.7
2020-May-27 12:54 211 4 gusting 5 6.1
2020-May-27 12:44 231 4 gusting 4 5.6
2020-May-27 12:39 261 2 gusting 4 5.6
2020-May-27 12:24 225 1 gusting 2 6.1
2020-May-27 12:19 199 4 gusting 5 6.7
2020-May-27 12:14 189 4 gusting 5 6.1
2020-May-27 12:09 191 4 gusting 5 6.1
2020-May-27 12:04 189 4 gusting 4 6.1
2020-May-27 11:59 205 4 gusting 5 6.1
2020-May-27 11:54 196 4 gusting 5 6.1
2020-May-27 11:49 208 3 gusting 5 6.1
2020-May-27 11:44 204 4 gusting 5 5.6
2020-May-27 11:34 277 1 gusting 2 5.0
2020-May-27 11:29 277 1 gusting 2 5.0
2020-May-27 11:24 291 2 gusting 2 5.6
2020-May-27 11:19 272 2 gusting 2 5.6
2020-May-27 11:04 181 2 gusting 2 6.1
2020-May-27 10:59 181 1 gusting 2 6.7
2020-May-27 10:54 167 1 gusting 2 6.7
2020-May-27 10:49 162 1 gusting 2 7.8
2020-May-27 10:44 167 2 gusting 2 7.2
2020-May-27 10:39 189 2 gusting 4 6.7
2020-May-27 10:34 196 4 gusting 4 6.7
2020-May-27 10:29 197 2 gusting 2 6.1
2020-May-27 10:19 252 1 gusting 2 6.1
2020-May-27 10:14 280 1 gusting 2 6.1
2020-May-27 10:09 302 2 gusting 2 6.7
2020-May-27 10:04 230 1 gusting 4 7.2
2020-May-27 09:59 179 4 gusting 5 7.2
2020-May-27 09:39 180 4 gusting 4 7.8
2020-May-27 09:29 199 2 gusting 4 7.8
2020-May-27 09:19 219 2 gusting 2 7.8
2020-May-27 09:14 202 2 gusting 4 7.8
2020-May-27 09:04 207 2 gusting 2 8.3
2020-May-27 08:59 245 1 gusting 2 7.8
2020-May-27 08:49 245 1 gusting 1 7.8
2020-May-27 08:44 245 1 gusting 2 7.8
2020-May-27 08:34 236 1 gusting 2 7.8
2020-May-27 08:29 235 1 gusting 2 7.8
2020-May-27 08:24 235 1 gusting 2 7.8
2020-May-27 08:19 235 1 gusting 2 7.2
2020-May-27 08:09 235 1 gusting 2 7.8
2020-May-27 07:54 235 2 gusting 2 7.8
2020-May-27 07:44 263 1 gusting 2 7.8
2020-May-27 07:39 223 0 gusting 1 8.3
2020-May-27 07:29 223 1 gusting 2 8.3
2020-May-27 07:24 223 1 gusting 2 8.9
2020-May-27 07:14 223 1 gusting 2 8.3
2020-May-27 07:09 223 1 gusting 2 8.9
2020-May-27 07:04 223 1 gusting 2 9.4
2020-May-27 06:59 223 0 gusting 1 9.4
2020-May-27 06:44 223 1 gusting 2 10.0
2020-May-27 06:34 229 4 gusting 4 10.0
2020-May-27 06:29 229 2 gusting 4 10.0
2020-May-27 06:24 227 3 gusting 4 10.0
2020-May-27 06:19 227 4 gusting 4 10.6
2020-May-27 06:14 232 2 gusting 2 10.6
2020-May-27 06:09 252 1 gusting 2 10.6
2020-May-27 06:04 254 1 gusting 2 10.6